Time,TemperatureF,DewpointF,PressureIn,WindDirection,WindDirectionDegrees,WindSpeedMPH,WindSpeedGustMPH,Humidity,HourlyPrecipIn,Conditions,Clouds,dailyrainin,SolarRadiationWatts/m^2,SoftwareType,DateUTC
2013-01-28 00:12:00,33.3,28.0,30.47,SSW,211,4.0,-999.0,80,-99.99,,,0.00,0,weatherlink.com 1.10,2013-01-28 05:12:00,
2013-01-28 00:27:00,33.2,28.0,30.48,WSW,251,3.0,-999.0,81,-99.99,,,0.00,0,weatherlink.com 1.10,2013-01-28 05:27:00,
2013-01-28 00:42:00,33.1,28.0,30.48,WSW,245,4.0,-999.0,81,-99.99,,,0.00,0,weatherlink.com 1.10,2013-01-28 05:42:00,
2013-01-28 00:57:00,33.2,28.0,30.48,WSW,248,2.0,-999.0,80,-99.99,,,0.00,0,weatherlink.com 1.10,2013-01-28 05:57:00,
2013-01-28 01:12:00,33.1,28.0,30.47,WSW,248,3.0,-999.0,81,-99.99,,,0.00,0,weatherlink.com 1.10,2013-01-28 06:12:00,
2013-01-28 01:27:00,33.1,28.0,30.46,West,273,3.0,-999.0,80,-99.99,,,0.00,0,weatherlink.com 1.10,2013-01-28 06:27:00,
2013-01-28 01:42:00,33.2,28.0,30.46,West,261,4.0,-999.0,80,-99.99,,,0.00,0,weatherlink.com 1.10,2013-01-28 06:42:00,
2013-01-28 01:57:00,33.2,27.0,30.45,West,260,5.0,-999.0,79,-99.99,,,0.00,0,weatherlink.com 1.10,2013-01-28 06:57:00,
2013-01-28 02:12:00,33.3,28.0,30.45,West,259,3.0,-999.0,80,-99.99,,,0.00,0,weatherlink.com 1.10,2013-01-28 07:12:00,
2013-01-28 02:27:00,33.2,28.0,30.46,West,260,3.0,-999.0,80,-99.99,,,0.00,0,weatherlink.com 1.10,2013-01-28 07:27:00,
2013-01-28 02:42:00,33.1,28.0,30.46,WSW,253,5.0,-999.0,80,-99.99,,,0.00,0,weatherlink.com 1.10,2013-01-28 07:42:00,
2013-01-28 02:57:00,32.9,27.0,30.45,WSW,241,5.0,-999.0,80,-99.99,,,0.00,0,weatherlink.com 1.10,2013-01-28 07:57:00,
2013-01-28 03:12:00,32.8,27.0,30.45,West,263,4.0,-999.0,80,-99.99,,,0.00,0,weatherlink.com 1.10,2013-01-28 08:12:00,
2013-01-28 03:27:00,32.7,28.0,30.46,WSW,254,7.0,-999.0,81,-99.99,,,0.00,0,weatherlink.com 1.10,2013-01-28 08:27:00,
2013-01-28 03:42:00,32.8,27.0,30.46,West,259,2.0,-999.0,80,-99.99,,,0.00,0,weatherlink.com 1.10,2013-01-28 08:42:00,
2013-01-28 03:57:00,32.9,27.0,30.45,West,260,6.0,-999.0,80,-99.99,,,0.00,0,weatherlink.com 1.10,2013-01-28 08:57:00,
2013-01-28 04:12:00,32.9,28.0,30.44,West,264,6.0,-999.0,81,-99.99,,,0.00,0,weatherlink.com 1.10,2013-01-28 09:12:00,
2013-01-28 04:27:00,32.8,27.0,30.45,WSW,252,6.0,-999.0,80,-99.99,,,0.00,0,weatherlink.com 1.10,2013-01-28 09:27:00,
2013-01-28 04:42:00,32.7,28.0,30.45,WSW,249,6.0,-999.0,81,-99.99,,,0.00,0,weatherlink.com 1.10,2013-01-28 09:42:00,
2013-01-28 04:57:00,32.6,27.0,30.45,WSW,254,6.0,-999.0,81,-99.99,,,0.00,0,weatherlink.com 1.10,2013-01-28 09:57:00,
2013-01-28 05:12:00,32.6,27.0,30.44,WSW,256,10.0,-999.0,81,-99.99,,,0.00,0,weatherlink.com 1.10,2013-01-28 10:12:00,
2013-01-28 05:27:00,32.8,28.0,30.45,West,280,3.0,-999.0,81,-99.99,,,0.00,0,weatherlink.com 1.10,2013-01-28 10:27:00,
2013-01-28 05:42:00,33.3,28.0,30.45,West,275,4.0,-999.0,80,-99.99,,,0.00,0,weatherlink.com 1.10,2013-01-28 10:42:00,
2013-01-28 05:57:00,33.8,30.0,30.45,WSW,257,10.0,-999.0,84,-99.99,,,0.00,0,weatherlink.com 1.10,2013-01-28 10:57:00,
2013-01-28 06:12:00,33.9,28.0,30.45,WSW,251,6.0,-999.0,78,-99.99,,,0.00,0,weatherlink.com 1.10,2013-01-28 11:12:00,
2013-01-28 06:27:00,33.7,28.0,30.45,West,277,6.0,-999.0,79,-99.99,,,0.00,0,weatherlink.com 1.10,2013-01-28 11:27:00,
2013-01-28 06:42:00,34.2,30.0,30.45,SW,226,7.0,-999.0,83,-99.99,,,0.00,0,weatherlink.com 1.10,2013-01-28 11:42:00,
2013-01-28 06:57:00,35.6,32.0,30.44,WSW,246,3.0,-999.0,86,-99.99,,,0.00,0,weatherlink.com 1.10,2013-01-28 11:57:00,
2013-01-28 07:12:00,36.8,34.0,30.44,West,276,5.0,-999.0,88,-99.99,,,0.00,0,weatherlink.com 1.10,2013-01-28 12:12:00,
2013-01-28 07:27:00,37.4,34.0,30.44,West,269,3.0,-999.0,86,-99.99,,,0.00,0,weatherlink.com 1.10,2013-01-28 12:27:00,
2013-01-28 07:42:00,37.3,33.0,30.44,WSW,258,6.0,-999.0,85,-99.99,,,0.00,0,weatherlink.com 1.10,2013-01-28 12:42:00,
2013-01-28 08:12:00,37.7,35.0,30.44,WNW,283,10.0,-999.0,91,-99.99,,,0.00,14,weatherlink.com 1.10,2013-01-28 13:12:00,
2013-01-28 08:27:00,38.0,35.0,30.44,West,277,7.0,-999.0,90,-99.99,,,0.00,14,weatherlink.com 1.10,2013-01-28 13:27:00,
2013-01-28 08:42:00,38.1,36.0,30.45,WSW,256,5.0,-999.0,90,-99.99,,,0.00,14,weatherlink.com 1.10,2013-01-28 13:42:00,
2013-01-28 08:57:00,37.9,35.0,30.45,WNW,290,5.0,-999.0,89,-99.99,,,0.00,11,weatherlink.com 1.10,2013-01-28 13:57:00,
2013-01-28 09:12:00,37.7,36.0,30.45,West,263,6.0,-999.0,92,-99.99,,,0.00,12,weatherlink.com 1.10,2013-01-28 14:12:00,
2013-01-28 09:27:00,38.3,37.0,30.45,West,268,6.0,-999.0,93,-99.99,,,0.00,30,weatherlink.com 1.10,2013-01-28 14:27:00,
2013-01-28 09:44:00,39.8,38.0,30.43,West,264,7.0,-999.0,94,-99.99,,,0.00,28,weatherlink.com 1.10,2013-01-28 14:44:00,
2013-01-28 09:57:00,40.2,39.0,30.44,WSW,256,5.0,-999.0,95,-99.99,,,0.00,23,weatherlink.com 1.10,2013-01-28 14:57:00,
2013-01-28 10:12:00,40.7,39.0,30.43,West,274,10.0,-999.0,95,-99.99,,,0.00,21,weatherlink.com 1.10,2013-01-28 15:12:00,
2013-01-28 10:27:00,40.9,40.0,30.43,WSW,252,14.0,-999.0,96,-99.99,,,0.00,25,weatherlink.com 1.10,2013-01-28 15:27:00,
2013-01-28 10:42:00,40.2,39.0,30.44,WSW,257,14.0,-999.0,96,-99.99,,,0.00,30,weatherlink.com 1.10,2013-01-28 15:42:00,
2013-01-28 10:57:00,40.2,39.0,30.45,West,280,5.0,-999.0,96,-99.99,,,0.00,97,weatherlink.com 1.10,2013-01-28 15:57:00,
2013-01-28 11:12:00,40.2,39.0,30.44,West,259,10.0,-999.0,96,-99.99,,,0.00,65,weatherlink.com 1.10,2013-01-28 16:12:00,
2013-01-28 11:27:00,40.9,40.0,30.44,WSW,258,8.0,-999.0,96,-99.99,,,0.00,72,weatherlink.com 1.10,2013-01-28 16:27:00,
2013-01-28 11:42:00,41.1,40.0,30.43,West,272,4.0,-999.0,96,-99.99,,,0.00,74,weatherlink.com 1.10,2013-01-28 16:42:00,
2013-01-28 11:57:00,41.3,40.0,30.43,West,273,7.0,-999.0,96,-99.99,,,0.00,79,weatherlink.com 1.10,2013-01-28 16:57:00,
2013-01-28 12:12:00,40.9,40.0,30.42,WSW,258,5.0,-999.0,96,-99.99,,,0.00,107,weatherlink.com 1.10,2013-01-28 17:12:00,
2013-01-28 12:27:00,41.3,41.0,30.40,West,280,4.0,-999.0,97,-99.99,,,0.00,72,weatherlink.com 1.10,2013-01-28 17:27:00,
2013-01-28 12:42:00,41.2,40.0,30.39,West,279,5.0,-999.0,97,-99.99,,,0.00,174,weatherlink.com 1.10,2013-01-28 17:42:00,
2013-01-28 12:57:00,41.7,41.0,30.39,WSW,242,11.0,-999.0,97,-99.99,,,0.00,237,weatherlink.com 1.10,2013-01-28 17:57:00,
2013-01-28 13:12:00,42.1,41.0,30.38,WSW,250,2.0,-999.0,97,-99.99,,,0.00,213,weatherlink.com 1.10,2013-01-28 18:12:00,
2013-01-28 13:27:00,41.8,41.0,30.37,WNW,289,1.0,-999.0,97,-99.99,,,0.00,98,weatherlink.com 1.10,2013-01-28 18:27:00,
2013-01-28 13:42:00,41.2,40.0,30.36,West,275,5.0,-999.0,97,-99.99,,,0.00,190,weatherlink.com 1.10,2013-01-28 18:42:00,
2013-01-28 13:57:00,40.5,40.0,30.35,WNW,299,0.0,-999.0,97,-99.99,,,0.00,167,weatherlink.com 1.10,2013-01-28 18:57:00,